Weather observations for the past three days for
Orlando International Airport
Metric (Imperial)
Date Time (edt) Wind (kph) Vis. (km) Weather Sky Cond. Temperature (ºC) Relative Humidity Wind Chill (°C) Heat Index (°C) Pressure Precipitation (cm)
Air Dwpt 6 hour altimeter (cm) sea level (mb) 1 hr 3 hr 6 hr
Max. Min.
28 19:53 E 17 G 33 16.09 Mostly Cloudy BKN050 27.2 23.9 35 25.6 82% 30 76.1 1014.5 0.66
28 18:53 NE 13 16.09 Partly Cloudy SCT055 SCT085 28.9 23.9 74% 33 76.07 1014.0 0.66
28 17:53 W 19 16.09 Mostly Cloudy FEW050 BKN060 BKN080 BKN250 31.1 21.7 57% 34 76.05 1013.8
28 16:53 SW 15 16.09 A Few Clouds FEW065 FEW080 FEW250 32.8 22.2 54% 37 76.07 1014.2
28 15:53 W 24 G 37 16.09 Mostly Cloudy SCT050 SCT120 BKN250 33.9 21.7 49% 38 76.1 1014.5
28 14:53 SW 15 G 30 16.09 Partly Cloudy FEW045 SCT110 SCT250 32.2 21.1 52% 35 76.15 1015.1
28 13:53 SW 19 16.09 Light Rain SCT050 SCT080 BKN100 BKN280 27.8 20.6 33.9 26.7 65% 30 76.25 1016.4
28 12:53 W 13 16.09 Mostly Cloudy SCT049 BKN300 32.8 20.6 49% 36 76.25 1016.2
28 11:53 W 20 16.09 Partly Cloudy FEW040 SCT300 32.8 20 47% 35 76.28 1016.6
28 10:53 SW 17 16.09 Partly Cloudy FEW035 FEW200 SCT300 31.7 21.7 55% 35 76.28 1016.9
28 09:53 W 17 16.09 Partly Cloudy FEW028 SCT300 30.6 21.7 59% 34 76.3 1017.0
28 08:53 W 15 16.09 Partly Cloudy FEW022 FEW200 SCT300 28.9 22.8 70% 32 76.33 1017.5
28 07:53 W 6 16.09 Partly Cloudy FEW200 SCT300 26.7 23.9 27.2 24.4 85% 29 76.3 1017.2
28 06:53 W 7 16.09 Partly Cloudy FEW200 SCT300 25 22.2 85% 26 76.3 1017.0
28 05:53 W 6 16.09 A Few Clouds FEW200 FEW300 25.6 21.7 79% 27 76.23 1016.2
28 04:53 NW 7 16.09 A Few Clouds FEW300 25.6 21.7 79% 27 76.25 1016.2
28 03:53 NW 7 16.09 A Few Clouds FEW300 25.6 20.6 74% 27 76.2 1015.8
28 02:53 Calm 16.09 Partly Cloudy FEW200 SCT300 26.1 20.6 72% 28 76.2 1015.5
28 01:53 N 7 16.09 Mostly Cloudy SCT200 BKN300 26.7 21.1 33.3 26.7 71% 28 76.23 1016.0
28 00:53 NW 7 16.09 Partly Cloudy FEW070 SCT210 SCT300 27.8 20 63% 29 76.28 1016.5
27 23:53 NW 22 16.09 Partly Cloudy FEW070 SCT300 28.9 19.4 57% 30 76.28 1016.8
27 22:53 Vrbl 6 16.09 Partly Cloudy FEW075 SCT300 28.3 23.3 74% 32 76.25 1016.3
27 21:53 NW 9 16.09 Mostly Cloudy FEW080 SCT250 BKN300 30.6 18.3 48% 32 76.15 1015.0
27 20:53 W 9 16.09 Partly Cloudy FEW080 SCT250 SCT300 31.7 18.3 45% 33 76.07 1014.1
27 19:53 W 9 16.09 Mostly Cloudy FEW080 SCT250 BKN300 33.3 17.8 36.1 33.3 40% 34 76.05 1013.7
27 18:53 W 7 16.09 Partly Cloudy FEW080 FEW250 SCT300 34.4 17.8 37% 35 76.02 1013.5
27 17:53 NW 9 16.09 Mostly Cloudy SCT075 BKN250 35 17.8 36% 36 76.05 1013.6
27 16:53 W 13 16.09 Mostly Cloudy SCT070 BKN250 35.6 18.3 36% 37 76.07 1013.9
27 15:53 NW 17 16.09 Partly Cloudy FEW070 SCT250 35 18.3 37% 36 76.1 1014.5
27 14:53 W 13 16.09 Partly Cloudy FEW040 SCT070 SCT250 34.4 18.3 38% 36 76.15 1015.1
27 13:53 W 11 G 33 16.09 A Few Clouds FEW040 FEW070 FEW250 34.4 17.8 35 25.6 37% 35 76.2 1015.8
27 12:53 W 17 G 33 16.09 A Few Clouds FEW040 FEW070 FEW250 33.9 17.8 38% 35 76.28 1016.6
27 11:53 SW 9 16.09 A Few Clouds FEW250 32.2 17.8 42% 33 76.28 1016.9
27 10:53 SW 13 16.09 A Few Clouds FEW250 31.1 18.3 46% 32 76.28 1016.6
27 09:53 W 9 16.09 Fair CLR 29.4 20.6 59% 32 76.23 1016.1
27 08:53 W 13 16.09 Fair CLR 27.8 21.7 69% 30 76.17 1015.5
27 07:53 W 9 16.09 A Few Clouds FEW250 25.6 21.7 26.1 23.3 79% 27 76.15 1014.9
27 06:53 Calm 16.09 A Few Clouds FEW250 23.3 21.1 88% 76.1 1014.3
27 05:53 SW 7 16.09 A Few Clouds FEW300 23.3 21.1 88% 76.05 1013.8
27 04:53 W 7 16.09 A Few Clouds FEW300 24.4 20.6 79% 25 76.02 1013.5
27 03:53 W 7 16.09 Fair CLR 25 20.6 77% 26 76.02 1013.3
27 02:53 SW 6 16.09 Fair CLR 25 20.6 77% 26 76.05 1013.6
27 01:53 W 6 16.09 Fair CLR 25.6 20 32.8 25.6 71% 27 76.07 1014.0
27 00:53 NW 7 16.09 A Few Clouds FEW300 27.2 19.4 62% 29 76.1 1014.5
26 23:53 NW 9 16.09 A Few Clouds FEW050 27.8 18.3 56% 29 76.15 1015.0
26 22:53 W 13 16.09 Partly Cloudy SCT045 28.9 20 59% 31 76.12 1014.7
26 21:53 Vrbl 9 16.09 Mostly Cloudy BKN045 29.4 23.3 70% 34 76.1 1014.4
26 20:53 SE 13 16.09 A Few Clouds FEW050 FEW250 30 23.3 67% 34 76.05 1013.6
26 19:53 SE 9 16.09 A Few Clouds FEW070 FEW250 32.8 19.4 36.1 32.8 45% 35 75.97 1012.6
26 18:53 Calm 16.09 A Few Clouds FEW070 34.4 18.9 40% 36 75.95 1012.3
26 17:53 Vrbl 6 16.09 A Few Clouds FEW070 35 19.4 40% 37 75.95 1012.2
26 16:53 W 9 16.09 A Few Clouds FEW060 35.6 18.9 37% 38 75.95 1012.2
26 15:53 Vrbl 9 16.09 A Few Clouds FEW050 35 18.3 37% 36 75.97 1012.8
26 14:53 Vrbl 7 16.09 A Few Clouds FEW045 33.9 20 44% 36 76 1013.2
26 13:53 Vrbl 9 16.09 Partly Cloudy FEW040 SCT250 33.3 20 33.9 23.9 46% 36 76.05 1013.8
26 12:53 SW 11 16.09 A Few Clouds FEW040 FEW250 32.8 21.1 50% 36 76.1 1014.3
26 11:53 Vrbl 7 16.09 Partly Cloudy FEW035 SCT250 31.1 21.1 55% 34 76.1 1014.4
26 10:53 SW 6 16.09 Partly Cloudy FEW030 SCT250 30 21.1 59% 33 76.1 1014.4
26 09:53 Calm 16.09 A Few Clouds FEW020 28.3 22.8 72% 32 76.1 1014.5
26 08:53 NW 6 16.09 A Few Clouds FEW250 26.7 22.8 79% 29 76.12 1014.6
26 07:53 Calm 16.09 A Few Clouds FEW250 23.9 22.8 23.9 21.7 94% 23 76.1 1014.5
26 06:53 Calm 16.09 Mostly Cloudy BKN250 22.2 21.7 97% 76.07 1013.9
26 05:53 Calm 16.09 A Few Clouds FEW250 22.2 21.7 97% 76 1013.2
26 04:53 S 6 14.48 A Few Clouds FEW250 22.2 21.7 97% 76.02 1013.2
26 03:53 Calm 16.09 A Few Clouds FEW250 23.3 21.7 91% 76.02 1013.2
26 02:53 Calm 16.09 Partly Cloudy SCT250 23.3 22.2 94% 76.02 1013.3
26 01:53 Calm 16.09 A Few Clouds FEW250 23.3 22.2 24.4 22.8 94% 76.05 1013.7
26 00:53 SW 6 16.09 A Few Clouds FEW250 23.3 22.8 97% 76.07 1014.0
25 23:53 Calm 16.09 A Few Clouds FEW250 23.9 22.2 90% 23 76.12 1014.6
25 22:53 Calm 16.09 A Few Clouds FEW250 23.9 22.2 90% 23 76.12 1014.8
25 21:53 SW 6 16.09 Partly Cloudy SCT250 23.3 22.2 94% 76.07 1014.1
25 20:53 S 7 16.09 A Few Clouds FEW050 FEW070 23.3 22.2 94% 76.02 1013.3
Date Time (edt) Wind (kph) Vis. (km) Weather Sky Cond. Air Dwpt Max. Min. Relative Humidity Wind Chill (°C) Heat Index (°C) altimeter (cm) sea level (mb) 1 hr 3 hr 6 hr
6 hour
Temperature (ºC) Pressure Precipitation (cm)